Altus AFB, OK

11:02 AM CST on December 10, 2016 (GMT -0600)
Altus Air Force Base

Weather History for KLTS - March, 2013

Change the Weather History Date:

Saturday, March 30, 2013

  Actual Average Record
Temperature  
Mean Temperature 64 °F -  
Max Temperature 82 °F 68 °F 87 °F (2008)
Min Temperature 46 °F 44 °F 33 °F (2011)
Degree Days  
Heating Degree Days 1    
Growing Degree Days 14 (Base 50)    
Moisture  
Dew Point 53 °F    
Average Humidity 87    
Maximum Humidity 100    
Minimum Humidity 39    
Precipitation  
Precipitation 0.00 in - - ()
Sea Level Pressure  
Sea Level Pressure 29.94 in    
Wind  
Wind Speed 5 mph (ESE)    
Max Wind Speed 9 mph    
Max Gust Speed -    
Visibility 7 miles    
Events Rain    
Averages and records for this station are not official NWS values.
T = Trace of Precipitation, MM = Missing Value Source: NWS Daily Summary

Daily Weather History Graph

Daily Weather History Graph

Search for Another Location

Airport or City:

Trip Planner

Search our weather history database for the weather conditions in past years. The results will help you decide how hot, cold, wet, or windy it might be!

Date:

Astronomy

Mar. 30, 2013 Rise Set
Actual Time 7:26 AM CDT 7:56 PM CDT
Civil Twilight 7:01 AM CDT 8:22 PM CDT
Nautical Twilight 6:31 AM CDT 8:52 PM CDT
Astronomical Twilight 6:01 AM CDT 9:22 PM CDT
Moon 11:55 PM CDT (3/30) 9:32 AM CDT (3/30)
Length of Visible Light 13h 21m
Length of Day
12h 30m
Waning Gibbous, 86% of the Moon is Illuminated
Mar 30
Waning Gibbous
Apr 2
Last Quarter
Apr 10
New
Apr 18
First Quarter
Apr 25
Full

Hourly Weather History & Observations

Time (CDT) Temp. Windchill Dew Point Humidity Pressure Visibility Wind Dir Wind Speed Gust Speed Precip Events Conditions
12:58 AM 59.0 °F - 57.0 °F 93% 29.97 in 10.0 mi ESE 8.1 mph - N/A   Clear
1:58 AM 56.1 °F - 56.1 °F 100% 29.95 in 10.0 mi ESE 5.8 mph - N/A   Clear
2:23 AM 53.6 °F - 53.6 °F 100% 29.98 in 9.0 mi SSE 5.8 mph - N/A   Clear
2:43 AM 53.6 °F - 53.6 °F 100% 29.98 in 10.0 mi SE 4.6 mph - N/A   Clear
2:58 AM 52.7 °F - 52.7 °F 100% 29.96 in 9.0 mi SE 4.6 mph - N/A   Clear
3:03 AM 53.6 °F - 53.6 °F 100% 29.97 in 3.0 mi SE 9.2 mph - N/A   Clear
3:13 AM 53.6 °F - 53.6 °F 100% 29.97 in 9.0 mi SE 6.9 mph - N/A   Clear
3:58 AM 50.7 °F - 50.7 °F 100% 29.96 in 10.0 mi SSE 5.8 mph - N/A   Clear
4:23 AM 51.8 °F - 51.8 °F 100% 29.97 in 8.0 mi SE 2.3 mph - N/A   Clear
4:28 AM 51.8 °F - 51.8 °F 100% 29.97 in 6.0 mi SSE 2.3 mph - N/A   Clear
4:38 AM 51.8 °F - 51.8 °F 100% 29.97 in 7.0 mi SE 4.6 mph - N/A   Clear
4:43 AM 50.0 °F - 50.0 °F 100% 29.97 in 3.0 mi SE 4.6 mph - N/A   Clear
4:48 AM 50.0 °F - 50.0 °F 100% 29.97 in 2.5 mi SE 4.6 mph - N/A   Clear
4:53 AM 50.0 °F - 50.0 °F 100% 29.97 in 5.0 mi ESE 3.5 mph - N/A   Clear
4:58 AM 50.4 °F - 50.4 °F 100% 29.96 in 8.0 mi ESE 4.6 mph - N/A   Clear
5:48 AM 48.2 °F - 48.2 °F 100% 29.98 in 10.0 mi East 3.5 mph - N/A   Clear
5:58 AM 49.6 °F - 49.6 °F 100% 29.96 in 10.0 mi ESE 4.6 mph - N/A   Clear
6:13 AM 48.2 °F - 48.2 °F 100% 29.98 in 9.0 mi East 3.5 mph - N/A   Clear
6:18 AM 50.0 °F - 50.0 °F 100% 29.98 in 10.0 mi ESE 3.5 mph - N/A   Clear
6:23 AM 50.0 °F - 50.0 °F 100% 29.98 in 9.0 mi ESE 4.6 mph - N/A   Clear
6:28 AM 50.0 °F - 50.0 °F 100% 29.98 in 7.0 mi ESE 4.6 mph - N/A   Clear
6:33 AM 50.0 °F - 50.0 °F 100% 29.98 in 4.0 mi ESE 4.6 mph - N/A   Clear
6:43 AM 50.0 °F - 50.0 °F 100% 29.98 in 7.0 mi ESE 3.5 mph - N/A   Clear
6:48 AM 50.0 °F - 50.0 °F 100% 29.98 in 5.0 mi East 3.5 mph - N/A   Clear
6:53 AM 50.0 °F - 50.0 °F 100% 29.98 in 4.0 mi ENE 3.5 mph - N/A   Clear
6:58 AM 49.1 °F - 49.1 °F 100% 29.96 in 3.0 mi East 3.5 mph - N/A   Clear
7:03 AM 48.2 °F - 48.2 °F 100% 29.98 in 1.8 mi East 4.6 mph - N/A   Clear
7:08 AM 48.2 °F - 48.2 °F 100% 29.98 in 1.2 mi East 4.6 mph - N/A   Clear
7:13 AM 48.2 °F - 48.2 °F 100% 29.98 in 1.5 mi East 4.6 mph - N/A   Clear
7:18 AM 46.4 °F 44.3 °F 46.4 °F 100% 29.98 in 2.5 mi East 4.6 mph - N/A   Clear
7:23 AM 46.4 °F 44.3 °F 46.4 °F 100% 29.98 in 4.0 mi East 4.6 mph - N/A   Clear
7:28 AM 46.4 °F 44.3 °F 46.4 °F 100% 29.99 in 3.0 mi East 4.6 mph - N/A   Clear
7:33 AM 46.4 °F 44.3 °F 46.4 °F 100% 29.99 in 2.5 mi East 4.6 mph - N/A   Clear
7:48 AM 48.2 °F - 48.2 °F 100% 29.99 in 3.0 mi East 5.8 mph - N/A   Clear
7:58 AM 48.9 °F - 48.9 °F 100% 29.97 in 5.0 mi East 4.6 mph - N/A   Clear
8:58 AM 55.4 °F - 55.4 °F 100% 29.96 in 10.0 mi SE 5.8 mph - N/A   Clear
9:58 AM 61.2 °F - 59.9 °F 96% 29.96 in 10.0 mi South 5.8 mph - N/A   Partly Cloudy
10:58 AM 66.4 °F - 59.5 °F 79% 29.96 in 10.0 mi WSW 2.3 mph - N/A   Clear
11:58 AM 70.3 °F - 59.4 °F 68% 29.95 in 10.0 mi SSW 3.5 mph - N/A   Clear
12:58 PM 73.4 °F - 58.8 °F 60% 29.94 in 3.0 mi Variable 1.2 mph - N/A   Haze
1:58 PM 76.6 °F - 59.0 °F 54% 29.91 in 5.0 mi Variable 6.9 mph - N/A   Haze
2:58 PM 79.3 °F - 58.6 °F 49% 29.88 in 10.0 mi NNE 5.8 mph - N/A   Clear
3:58 PM 80.8 °F - 58.1 °F 46% 29.87 in 10.0 mi ENE 5.8 mph - N/A   Clear
4:58 PM 82.4 °F - 56.7 °F 41% 29.86 in 10.0 mi Variable 4.6 mph - N/A   Mostly Cloudy
5:28 PM 82.4 °F - 55.4 °F 39% 29.87 in 10.0 mi NE 5.8 mph - N/A   Scattered Clouds
5:59 PM 80.2 °F - 58.3 °F 47% 29.85 in 10.0 mi ESE 8.1 mph - N/A   Partly Cloudy
6:59 PM 79.0 °F - 58.1 °F 49% 29.84 in 10.0 mi SE 3.5 mph - N/A   Clear
7:58 PM 72.0 °F - 59.0 °F 64% 29.85 in 10.0 mi East 5.8 mph - N/A   Clear
8:23 PM 68.0 °F - 59.0 °F 73% 29.87 in 10.0 mi ESE 6.9 mph - N/A Rain Light Rain
8:24 PM 68.0 °F - 59.0 °F 73% 29.87 in 10.0 mi ESE 6.9 mph - N/A   Clear
8:30 PM 68.0 °F - 59.0 °F 73% 29.88 in 10.0 mi ESE 5.8 mph - N/A Rain Light Rain
8:49 PM 66.2 °F - 59.0 °F 78% 29.88 in 10.0 mi ESE 5.8 mph - N/A   Clear
8:58 PM 66.4 °F - 58.3 °F 75% 29.87 in 10.0 mi East 6.9 mph - 0.00 in   Clear
9:58 PM 65.3 °F - 57.6 °F 76% 29.87 in 10.0 mi East 8.1 mph - N/A   Clear
10:58 PM 62.8 °F - 56.5 °F 80% 29.88 in 10.0 mi East 5.8 mph - N/A   Clear
11:59 PM 61.5 °F - 56.3 °F 83% 29.86 in 10.0 mi ESE 8.1 mph - N/A   Clear